FENGYUN 1C DEB, 38499

Orbit data source: Space-Track

FENGYUN 1C DEB, 38499 is space debris in SSO originally from a launch on Mon, 10 May 1999 UTC launched from the Taiyaun Space Center, China (TSC). Fengyun 1C debris stems from the Chinese weather satellite Fengyun-1C, which was intentionally destroyed by a Chinese anti-satellite missile in 2007. This event dramatically increased the amount of space debris, with thousands of trackable fragments posing hazards to satellites and human spaceflight. The Fengyun 1C debris cloud has become a focal point in discussions about space sustainability and the need for international regulations to prevent the creation of new debris.

Loading next visibility...
Identifier
38499, 1999-025ESJ
Orbit
SSO
Country
Flag of CNCN / PRC
Related business
Manufacturer
Unknown
Mission
Spacecraft
Bus & Motor
Unknown
Mass
Unknown
Launch date (UTC)
1999-05-10 (27 years ago)
Launch vehicle
Unknown
Launch site
Taiyaun Space Center, China (TSC)
Object type
Payload
Rocket body
Debris
Shape & HBR
Unknown shape, 0.1 m
Radar Cross Section
Small (<0.1 m²)

Expand to show TLE details & history
Last TLE update: 2 weeks ago

TLE from 2 weeks ago
0 FENGYUN 1C DEB
1 38499U 99025ESJ 26197.60929166  .00000686  00000-0  61830-3 0  9993
2 38499  98.4085  73.5181 0224138 280.4353  77.1613 13.76233613785289
Epoch: 2026-07-16T14:37Z
TLE epoch observation values (Epoch: 2026-07-16T14:37:22.799Z)
Latitude
-0.00002°
Longitude
-80.27518°
Altitude
947.039 km
Speed
7.395 km/s
True Right ascension
04h 54m 04s
True Declination
0° 00' 00"
Sunlit
Object was in daylight at epoch
Visualization orbit readout
Latitude
Unknown
Longitude
Unknown
Altitude
Unknown
Speed
Unknown
Apparent Right ascension
Unknown
Apparent Declination
Unknown
Sunlit
N/A
Visualization observer readout
Local Sidereal Time
03:53:02
Azimuth
Unknown
Elevation
Unknown
Doppler factor
Unknown
Orbital elements
Apogee altitude
1,139.278 km
Perigee altitude
809.677 km
Semi-major axis
7,352.615 km
Eccentricity
0.02241
Inclination
98.4085°
RAAN
73.5181°
Arg. of periapsis
280.4353°
True anomaly
79.68039°
Mean anomaly
77.1613°
Eccentric anomaly
78.41937°
Mean motion
3.44255 °/min
Orbital period
104.57 mins
BSTAR
0.0006183
Loading maneuver chart data...
Computing Atmospheric mass density...
Loading historical data...
Loading historical data...
Loading historical data...
Loading historical data...
Loading historical data...
Loading historical data...
Loading historical data...

Documentation

Showing up to 5 results
|